Вернуться в каталог

STARLINK-36787

АктивенСвязьVLEO
NORAD 68094·PAYLOAD·🇺🇸 United States

Запущен Mar 4, 2026 с Vandenberg Space Force Base

Loading…

Ближайшие Пролёты (ближайшие 24 часа)

TLE

СвежийSource: CelesTrak SupGP

Эпоха: Sep 15, 2026, 04:02 UTC

1 68094C 26042AB  26258.16854167  .00067544  00000+0  19961-2 0  2583
2 68094  53.1592  14.3044 0001310  96.4707 341.9025 15.34349059    16

Отслеживайте STARLINK-36787 в реальном времени с AllMySat

Download on the App Store